Location: Newark
(43.4306°N, 0.3089°E)
Time: 10:57:42
(UTC+00:00)

Vanguard 3 - Pass Details

Date: 28 August 2019
Orbit: 508 x 3263 km, 33.4° (Epoch: 22 September)

Event Time Altitude Azimuth Distance (km) Brightness Sun altitude
Rises 15:34:25 0° 241° (WSW) 6,032 12.7 32.7°
Reaches altitude 10° 15:39:23 10° 235° (SW) 4,556 12.3 31.8°
Maximum altitude 15:49:29 37° 174° (S) 2,028 9.6 30.1°
Drops below altitude 10° 15:55:35 10° 109° (ESE) 2,735 9.5 29.0°
Sets 15:57:50 0° 100° (E) 3,424 9.9 28.6°
